CW0774 Weather Reports


Display with metric or nautical units.
time (UTC)temp
F
wind
direction
speed
MPH
gust
MPH
rain 1hr
in
rain 24hr
in
rain mn
in
humidity
%
barometer
mb
20260508035413 49 13 0.0 0.0 0.00 0.00 0.00 63 1012.5
20260508034914 49 13 0.0 0.0 0.00 0.00 0.00 62 1012.6
20260508034414 49 13 0.0 0.0 0.00 0.00 0.00 62 1012.5
20260508033914 49 13 0.0 0.0 0.00 0.00 0.00 61 1012.6
20260508032915 50 13 0.0 0.0 0.00 0.00 0.00 57 1012.5
20260508032414 50 13 0.0 0.0 0.00 0.00 0.00 54 1012.4
20260508031914 50 13 0.0 0.0 0.00 0.00 0.00 54 1012.5
20260508031415 50 13 0.0 5.0 0.00 0.00 0.00 54 1012.6
20260508030913 50 13 0.0 5.0 0.00 0.00 0.00 54 1012.5
20260508030414 51 13 3.0 5.0 0.00 0.00 0.00 54 1012.5
20260508025913 51 14 4.0 6.0 0.00 0.00 0.00 53 1012.5
20260508025413 51 17 1.0 6.0 0.00 0.00 0.00 53 1012.6
20260508024415 51 14 2.0 5.0 0.00 0.00 0.00 54 1012.4
20260508023914 51 10 3.0 5.0 0.00 0.00 0.00 53 1012.3
20260508022915 51 25 2.0 7.0 0.00 0.00 0.00 54 1012.2
20260508022413 51 20 4.0 7.0 0.00 0.00 0.00 54 1012.1
20260508021914 52 15 5.0 6.0 0.00 0.00 0.00 54 1012.1
20260508021414 52 11 1.0 6.0 0.00 0.00 0.00 54 1012.1
20260508020914 52 12 3.0 6.0 0.00 0.00 0.00 54 1012.1
20260508020414 52 17 4.0 6.0 0.00 0.00 0.00 54 1012.1
20260508015914 52 15 2.0 6.0 0.00 0.00 0.00 54 1012.0
20260508015414 52 20 0.0 6.0 0.00 0.00 0.00 54 1011.9
20260508014914 53 12 4.0 7.0 0.00 0.00 0.00 54 1011.8
20260508014414 53 24 5.0 7.0 0.00 0.00 0.00 53 1011.9
20260508013915 53 13 5.0 7.0 0.00 0.00 0.00 53 1011.8
20260508012914 53 18 4.0 7.0 0.00 0.00 0.00 53 1011.6
20260508012415 53 18 3.0 5.0 0.00 0.00 0.00 52 1011.6
20260508011915 53 14 3.0 6.0 0.00 0.00 0.00 52 1011.6
20260508011414 54 21 3.0 6.0 0.00 0.00 0.00 51 1011.6
20260508010915 54 0 1.0 8.0 0.00 0.00 0.00 51 1011.5
20260508005915 54 12 4.0 7.0 0.00 0.00 0.00 50 1011.3
20260508005414 55 17 5.0 9.0 0.00 0.00 0.00 49 1011.2
20260508004915 55 18 4.0 9.0 0.00 0.00 0.00 49 1011.1
20260508003414 55 27 4.0 7.0 0.00 0.00 0.00 50 1010.8
20260508002914 56 13 4.0 6.0 0.00 0.00 0.00 49 1010.6
20260508002414 56 16 4.0 6.0 0.00 0.00 0.00 48 1010.5
20260508001914 56 20 2.0 7.0 0.00 0.00 0.00 48 1010.5
20260508001414 56 13 4.0 7.0 0.00 0.00 0.00 47 1010.4
20260508000915 56 19 5.0 6.0 0.00 0.00 0.00 47 1010.4
20260508000415 57 13 3.0 6.0 0.00 0.00 0.00 46 1010.3
20260507235915 57 23 4.0 8.0 0.00 0.00 0.00 45 1010.3
20260507235414 57 25 4.0 8.0 0.00 0.00 0.00 45 1010.3
20260507234415 58 14 5.0 8.0 0.00 0.00 0.00 43 1010.1
20260507233914 58 12 5.0 8.0 0.00 0.00 0.00 42 1010.1
20260507233414 58 20 6.0 8.0 0.00 0.00 0.00 41 1010.1
20260507232914 58 16 3.0 7.0 0.00 0.00 0.00 42 1010.0
20260507231914 58 14 3.0 8.0 0.00 0.00 0.00 41 1009.8
20260507231414 59 25 3.0 8.0 0.00 0.00 0.00 41 1009.7
20260507230915 59 27 6.0 8.0 0.00 0.00 0.00 40 1009.6
20260507230415 59 12 3.0 8.0 0.00 0.00 0.00 42 1009.5
20260507225914 59 8 5.0 9.0 0.00 0.00 0.00 41 1009.5
20260507225415 59 23 3.0 9.0 0.00 0.00 0.00 42 1009.4
20260507224915 59 7 5.0 9.0 0.00 0.00 0.00 41 1009.3
20260507224414 60 55 1.0 7.0 0.00 0.00 0.00 41 1009.3
20260507223914 60 11 5.0 7.0 0.00 0.00 0.00 40 1009.2
20260507223414 60 5 3.0 10.0 0.00 0.00 0.00 39 1009.1
20260507222914 60 0 2.0 10.0 0.00 0.00 0.00 38 1009.1
20260507221915 60 11 2.0 12.0 0.00 0.00 0.00 38 1009.0
20260507221414 60 26 6.0 12.0 0.00 0.00 0.00 38 1009.0
20260507220914 60 22 5.0 9.0 0.00 0.00 0.00 38 1009.0
20260507220414 60 35 3.0 9.0 0.00 0.00 0.00 39 1009.0
20260507215914 60 21 3.0 8.0 0.00 0.00 0.00 39 1009.0
20260507214914 61 26 2.0 12.0 0.00 0.00 0.00 37 1008.9
20260507213914 62 29 5.0 9.0 0.00 0.00 0.00 37 1008.9
20260507213414 62 11 3.0 9.0 0.00 0.00 0.00 37 1008.9
20260507212914 62 101 3.0 9.0 0.00 0.00 0.00 38 1008.9
20260507212414 61 76 2.0 9.0 0.00 0.00 0.00 38 1008.9
20260507211414 61 30 3.0 15.0 0.00 0.00 0.00 39 1008.9
20260507210915 61 46 4.0 12.0 0.00 0.00 0.00 38 1008.7
20260507210414 61 15 7.0 12.0 0.00 0.00 0.00 38 1008.7
20260507205415 62 0 5.0 10.0 0.00 0.00 0.00 40 1008.7
20260507204915 63 31 2.0 10.0 0.00 0.00 0.00 40 1008.6
20260507204416 63 73 2.0 9.0 0.00 0.00 0.00 40 1008.6
20260507203915 63 1 2.0 9.0 0.00 0.00 0.00 39 1008.5
20260507203414 63 12 2.0 9.0 0.00 0.00 0.00 38 1008.6
20260507202914 64 10 2.0 9.0 0.00 0.00 0.00 38 1008.4
20260507202414 64 9 4.0 8.0 0.00 0.00 0.00 38 1008.4
20260507201916 64 1 1.0 9.0 0.00 0.00 0.00 42 1008.3
20260507201414 64 123 1.0 9.0 0.00 0.00 0.00 42 1008.4
20260507200915 64 23 3.0 12.0 0.00 0.00 0.00 41 1008.5
20260507195914 64 100 1.0 9.0 0.00 0.00 0.00 45 1008.5
20260507195414 65 14 5.0 9.0 0.00 0.00 0.00 46 1008.4
20260507194914 65 83 2.0 9.0 0.00 0.00 0.00 51 1008.4
20260507194414 65 128 2.0 9.0 0.00 0.00 0.00 54 1008.4
20260507193914 65 176 2.0 7.0 0.00 0.00 0.00 55 1008.4
20260507193414 65 136 3.0 7.0 0.00 0.00 0.00 57 1008.5
20260507192914 64 134 3.0 7.0 0.00 0.00 0.00 58 1008.5
20260507192414 63 184 1.0 9.0 0.00 0.00 0.00 60 1008.6
20260507191914 63 175 2.0 9.0 0.00 0.00 0.00 59 1008.7
20260507191415 64 172 4.0 9.0 0.00 0.00 0.00 58 1008.8
20260507190914 64 159 1.0 9.0 0.00 0.00 0.00 59 1008.8
20260507190414 65 192 4.0 9.0 0.00 0.00 0.00 58 1008.8
20260507185915 66 123 3.0 7.0 0.00 0.00 0.00 57 1008.9
20260507184914 66 93 2.0 7.0 0.00 0.00 0.00 58 1008.8
20260507184415 66 126 2.0 8.0 0.00 0.00 0.00 58 1008.9
20260507183914 65 190 2.0 8.0 0.00 0.00 0.00 59 1008.9
20260507183414 65 185 1.0 12.0 0.00 0.00 0.00 58 1008.9
20260507182914 65 114 5.0 12.0 0.00 0.00 0.00 58 1009.1
20260507182414 64 173 3.0 12.0 0.00 0.00 0.00 59 1009.1
20260507181914 64 202 3.0 8.0 0.00 0.00 0.00 60 1009.2
20260507181414 63 247 3.0 13.0 0.00 0.00 0.00 61 1009.3
20260507180914 62 118 1.0 13.0 0.00 0.00 0.00 62 1009.4
20260507180413 62 171 5.0 13.0 0.00 0.00 0.00 62 1009.4
20260507175914 61 170 5.0 13.0 0.00 0.00 0.00 63 1009.4
20260507175414 61 137 2.0 13.0 0.00 0.00 0.00 65 1009.4
20260507174914 61 203 4.0 10.0 0.00 0.00 0.00 64 1009.5
20260507174415 61 160 4.0 10.0 0.00 0.00 0.00 64 1009.5
20260507173916 62 41 3.0 10.0 0.00 0.00 0.00 64 1009.6
20260507173414 62 120 5.0 10.0 0.00 0.00 0.00 63 1009.7
20260507172914 62 172 4.0 9.0 0.00 0.00 0.00 64 1009.7
20260507171414 62 188 5.0 10.0 0.00 0.00 0.00 65 1009.9
20260507170414 63 171 5.0 10.0 0.00 0.00 0.00 64 1009.9
20260507165415 62 169 3.0 10.0 0.00 0.00 0.00 65 1009.8
20260507164914 63 111 2.0 8.0 0.00 0.00 0.00 64 1009.7
20260507164414 63 196 3.0 12.0 0.00 0.00 0.00 63 1009.8
20260507163914 64 159 3.0 12.0 0.00 0.00 0.00 62 1009.9
20260507163414 64 165 6.0 12.0 0.00 0.00 0.00 63 1009.9
20260507162914 64 185 2.0 10.0 0.00 0.00 0.00 64 1009.9
20260507162414 64 164 5.0 10.0 0.00 0.00 0.00 64 1009.9
20260507161914 63 90 1.0 10.0 0.00 0.00 0.00 65 1009.9
20260507161414 63 174 1.0 10.0 0.00 0.00 0.00 66 1010.1
20260507160915 63 164 3.0 10.0 0.00 0.00 0.00 67 1010.2
20260507160415 62 220 1.0 10.0 0.00 0.00 0.00 69 1010.3
20260507155914 61 144 1.0 9.0 0.00 0.00 0.00 70 1010.3
20260507155414 60 141 3.0 9.0 0.00 0.00 0.00 70 1010.4
20260507154915 60 148 2.0 8.0 0.00 0.00 0.00 70 1010.4
20260507154415 60 151 0.0 8.0 0.00 0.00 0.00 70 1010.6
20260507153914 60 61 0.0 8.0 0.00 0.00 0.00 69 1010.6
20260507153414 60 166 3.0 8.0 0.00 0.00 0.00 69 1010.4
20260507152914 60 97 0.0 9.0 0.00 0.00 0.00 69 1010.5
20260507152415 59 97 3.0 9.0 0.00 0.00 0.00 71 1010.6
20260507151415 59 119 0.0 3.0 0.00 0.00 0.00 73 1010.6
20260507150913 58 119 0.0 3.0 0.00 0.00 0.00 75 1010.6
20260507150414 58 119 0.0 2.0 0.00 0.00 0.00 75 1010.7
20260507145914 58 119 0.0 7.0 0.00 0.00 0.00 77 1010.7
20260507144914 57 18 0.0 6.0 0.00 0.00 0.00 76 1010.8
20260507144416 57 8 2.0 6.0 0.00 0.00 0.00 78 1010.9
20260507142915 55 28 0.0 5.0 0.00 0.00 0.00 82 1011.2
20260507142414 55 28 1.0 6.0 0.00 0.00 0.00 83 1011.2
20260507141914 54 121 1.0 6.0 0.00 0.00 0.00 84 1011.2
20260507140416 53 28 0.0 6.0 0.00 0.00 0.00 86 1011.4
20260507135915 53 0 1.0 6.0 0.00 0.00 0.00 87 1011.5
20260507135414 52 129 1.0 5.0 0.00 0.00 0.00 87 1011.5
20260507134914 52 0 0.0 5.0 0.00 0.00 0.00 88 1011.5
20260507134414 52 5 1.0 5.0 0.00 0.00 0.00 89 1011.5
20260507133915 52 10 0.0 3.0 0.00 0.00 0.00 89 1011.4
20260507133414 51 10 0.0 5.0 0.00 0.00 0.00 89 1011.6
20260507132915 51 10 2.0 5.0 0.00 0.00 0.00 90 1011.7
20260507132414 51 7 0.0 6.0 0.00 0.00 0.00 91 1011.6
20260507131915 51 7 2.0 6.0 0.00 0.00 0.00 91 1011.6
20260507131414 50 14 0.0 5.0 0.00 0.00 0.00 92 1011.6
20260507130414 50 0 3.0 6.0 0.00 0.00 0.00 92 1011.8
20260507125414 50 347 0.0 0.0 0.00 0.00 0.00 94 1012.0
20260507123914 49 347 0.0 5.0 0.00 0.00 0.00 95 1012.0
20260507123414 49 347 0.0 5.0 0.00 0.00 0.00 96 1012.0
20260507122914 49 20 0.0 2.0 0.00 0.00 0.00 96 1012.0
20260507121914 49 20 1.0 3.0 0.00 0.00 0.00 98 1011.9
20260507120914 48 4 0.0 0.0 0.00 0.00 0.00 99 1012.1
20260507115914 48 4 0.0 0.0 0.00 0.00 0.00 100 1011.9
20260507115414 48 4 0.0 0.0 0.00 0.00 0.00 100 1011.8
20260507114915 48 4 0.0 0.0 0.00 0.00 0.00 100 1012.0
20260507114413 48 4 0.0 0.0 0.00 0.00 0.00 100 1012.0
20260507113914 48 4 0.0 0.0 0.00 0.00 0.00 100 1012.0
20260507113414 48 4 0.0 0.0 0.00 0.00 0.00 100 1012.2
20260507112914 48 4 0.0 0.0 0.00 0.00 0.00 100 1012.2
20260507112414 48 4 0.0 0.0 0.00 0.00 0.00 100 1012.1
20260507111914 48 4 0.0 0.0 0.00 0.00 0.00 100 1012.1
20260507111414 48 4 0.0 0.0 0.00 0.00 0.00 100 1012.3
20260507110914 48 4 0.0 0.0 0.00 0.00 0.00 100 1012.4
20260507110414 48 4 0.0 0.0 0.00 0.00 0.00 100 1012.2
20260507105914 48 4 0.0 0.0 0.00 0.00 0.00 100 1012.1
20260507105414 48 4 0.0 0.0 0.00 0.00 0.00 100 1012.6
20260507104914 48 4 0.0 0.0 0.00 0.00 0.00 100 1013.0
20260507104414 48 4 0.0 0.0 0.00 0.00 0.00 100 1012.3
20260507103915 48 4 0.0 0.0 0.00 0.00 0.00 100 1012.2
20260507103414 48 4 0.0 0.0 0.00 0.00 0.00 100 1012.7
20260507102913 48 4 0.0 0.0 0.00 0.00 0.00 100 1012.6
20260507102414 48 4 0.0 0.0 0.00 0.00 0.00 100 1012.1
20260507101914 48 4 0.0 0.0 0.00 0.00 0.00 100 1012.2
20260507101414 48 4 0.0 0.0 0.00 0.00 0.00 100 1012.2
20260507100914 48 4 0.0 0.0 0.00 0.00 0.00 100 1012.1
20260507100414 48 4 0.0 0.0 0.00 0.00 0.00 100 1012.3
20260507095914 48 4 0.0 0.0 0.00 0.00 0.00 100 1011.8
20260507095414 48 4 0.0 0.0 0.00 0.00 0.00 100 1011.4
20260507094914 48 4 0.0 0.0 0.00 0.00 0.00 100 1011.5
20260507094414 48 4 0.0 0.0 0.00 0.00 0.00 100 1011.9
20260507093414 48 4 0.0 0.0 0.00 0.00 0.00 100 1011.5
20260507092914 48 4 0.0 0.0 0.00 0.00 0.00 100 1011.2
20260507091914 48 4 0.0 0.0 0.00 0.00 0.00 100 1011.6
20260507091414 48 4 0.0 3.0 0.00 0.00 0.00 100 1011.8
20260507090914 48 4 0.0 3.0 0.00 0.00 0.00 100 1011.5
20260507090414 48 24 0.0 3.0 0.00 0.00 0.00 100 1011.5
20260507085915 48 24 0.0 3.0 0.00 0.00 0.00 100 1011.5
20260507085414 48 23 0.0 3.0 0.00 0.00 0.00 100 1011.7
20260507084414 49 8 0.0 5.0 0.00 0.00 0.00 100 1011.5
20260507083914 49 3 0.0 7.0 0.00 0.00 0.00 100 1011.4
20260507083415 49 8 2.0 7.0 0.00 0.00 0.00 100 1011.1
20260507082914 49 6 0.0 6.0 0.00 0.00 0.00 100 1011.0
20260507081914 49 18 1.0 5.0 0.00 0.00 0.00 100 1011.5
20260507081414 49 16 0.0 3.0 0.00 0.00 0.00 100 1011.6
20260507080916 49 16 0.0 5.0 0.00 0.00 0.00 100 1011.5
20260507080415 49 15 1.0 5.0 0.00 0.00 0.00 100 1011.0
20260507075914 49 13 0.0 5.0 0.00 0.00 0.00 100 1011.2
20260507075414 49 9 2.0 6.0 0.00 0.00 0.00 100 1011.0
20260507074914 49 12 2.0 6.0 0.00 0.00 0.00 100 1011.2
20260507073914 50 15 2.0 5.0 0.00 0.00 0.00 100 1011.2
20260507073414 50 11 0.0 5.0 0.00 0.00 0.00 100 1010.9
20260507072915 50 10 0.0 5.0 0.00 0.00 0.00 100 1010.8
20260507072414 50 11 2.0 5.0 0.00 0.00 0.00 100 1011.0
20260507071414 50 14 0.0 0.0 0.00 0.00 0.00 100 1010.6
20260507070414 50 14 0.0 0.0 0.00 0.00 0.00 100 1010.8
20260507065914 50 14 0.0 0.0 0.00 0.00 0.00 100 1010.6
20260507065414 50 14 0.0 0.0 0.00 0.00 0.00 100 1010.2
20260507064914 50 14 0.0 0.0 0.00 0.00 0.00 100 1010.2
20260507064414 50 14 0.0 0.0 0.00 0.00 0.00 100 1010.3
20260507063413 50 14 0.0 0.0 0.00 0.00 0.00 100 1010.2
20260507062915 50 14 0.0 0.0 0.00 0.00 0.00 100 1010.1
20260507062414 50 14 0.0 0.0 0.00 0.00 0.00 100 1010.1
20260507061415 51 14 0.0 0.0 0.00 0.00 0.00 100 1010.2
20260507055914 51 14 0.0 6.0 0.00 0.00 0.00 100 1009.7
20260507055415 51 30 1.0 6.0 0.00 0.00 0.00 100 1010.1
20260507054914 51 17 2.0 6.0 0.00 0.00 0.00 100 1010.2
20260507054416 52 18 1.0 6.0 0.00 0.00 0.00 100 1010.1
20260507053914 52 7 0.0 3.0 0.00 0.00 0.00 100 1010.0
20260507053414 52 14 0.0 0.0 0.00 0.00 0.00 100 1009.9
20260507052914 52 14 0.0 7.0 0.00 0.00 0.00 100 1010.0
20260507052415 52 14 0.0 7.0 0.00 0.00 0.00 100 1009.9
20260507051914 52 20 1.0 7.0 0.00 0.00 0.00 100 1010.0
20260507051414 52 11 1.0 7.0 0.00 0.00 0.00 100 1010.0
20260507045914 52 29 3.0 9.0 0.00 0.00 0.00 100 1009.6
20260507045415 52 13 1.0 5.0 0.00 0.00 0.00 100 1009.6
20260507044914 51 134 0.0 2.0 0.00 0.00 0.00 100 1009.8
20260507044414 51 134 0.0 0.0 0.00 0.00 0.00 100 1009.8
20260507043914 51 134 0.0 0.0 0.00 0.00 0.00 100 1010.0
20260507043414 51 134 0.0 7.0 0.00 0.00 0.00 100 1010.1
20260507042915 51 134 1.0 7.0 0.00 0.00 0.00 100 1010.1
20260507042414 51 124 1.0 7.0 0.00 0.00 0.00 100 1010.1
20260507041914 51 164 0.0 5.0 0.00 0.00 0.00 100 1009.9
20260507040914 51 178 1.0 5.0 0.00 0.00 0.00 100 1009.1
20260507040415 51 186 0.0 2.0 0.00 0.00 0.00 100 1009.2
20260507035914 51 186 0.0 5.0 0.00 0.00 0.00 100 1009.2